DECAYED

SL-12 DEB, 29308 (Decayed)

Orbit data source: Space-Track

SL-12 DEB, 29308 was space debris originally from a launch on Wed, 31 May 1989 UTC launched from the Tyuratam Missile And Space Complex (TTMTR). Debris objects in space refer to the collection of defunct objects orbiting the Earth. Examples of debris include non-operational satellites, rocket bodies, and fragments generated from explosions, collisions, or faulty payload assembly.

Not visible in the next 10 days
Identifier
29308, 1989-039P
Orbit
Decayed
Country
Flag of CISCIS
Related business
Manufacturer
Unknown
Mission
Decayed spacecraft
Bus & Motor
Unknown
Mass
Unknown
Launch date (UTC)
1989-05-31 (37 years ago)
Launch vehicle
Unknown
Launch site
Tyuratam Missile And Space Complex (TTMTR)
Object type
Payload
Rocket body
Debris
Shape & HBR
Unknown shape, 0.1 m
Radar Cross Section
Small (<0.1 m²)

Expand to show TLE details & history
Last TLE update: 11 months ago

TLE from 11 months ago
0 SL-12 DEB
1 29308U 89039P   25003.19411151  .00698408  00000-0  31614+0 0  9993
2 29308  64.8097 335.5416 3029000 339.8592  10.4175  8.93475532389743
Epoch: 2025-01-03T04:39Z
TLE epoch observation values (Epoch: 2025-01-03T04:39:31.234Z)
Latitude
-0.00006°
Longitude
162.59924°
Altitude
561.85 km
Speed
8.618 km/s
True Right ascension
22h 22m 09s
True Declination
0° 00' 00"
Sunlit
Object was in daylight at epoch
Visualization orbit readout
Latitude
Unknown
Longitude
Unknown
Altitude
Unknown
Speed
Unknown
Apparent Right ascension
Unknown
Apparent Declination
Unknown
Sunlit
N/A
Visualization observer readout
Local Sidereal Time
23:32:27
Azimuth
Unknown
Elevation
Unknown
Doppler factor
Unknown
Orbital elements
Apogee altitude
6,402.103 km
Perigee altitude
459.767 km
Semi-major axis
9,809.072 km
Eccentricity
0.3029
Inclination
64.8097°
RAAN
335.5416°
Arg. of periapsis
339.8592°
True anomaly
20.23351°
Mean anomaly
10.4175°
Eccentric anomaly
14.87174°
Mean motion
2.23409 °/min
Orbital period
161.14 mins
BSTAR
0.31614
Loading maneuver chart data...
Computing Atmospheric mass density...

Documentation

Showing up to 5 results
|